Regional Weather Roundup
Issued by NWS

Home | Current Version | Previous Version | Text Only | Print | Product List | Glossary On
Versions: 1 2 3 4 5 6 7 8 9 10 11 12 13 14 15 16 17 18 19 20 21 22 23 24 25 26 27 28 29 30 31 32 33 34 35 36 37 38 39 40 41 42 43 44 45 46 47 48 49 50
000
ASUS44 KEWX 311402
RWRTX
SOUTH TEXAS REGIONAL WEATHER ROUNDUP
NATIONAL WEATHER SERVICE AUSTIN/SAN ANTONIO TX
900 AM CDT FRI OCT 31 2014

NOTE: "FAIR" INDICATED FEW OR NO CLOUDS BELOW 12,000 FEET WITH NO
SIGNIFICANT WEATHER AND/OR OBSTRUCTIONS TO VISIBILITY.

* - THESE STATIONS ARE NOT NWS OR FAA STATIONS...AND ARE NOT SUBJECT
    TO NWS AND FAA QUALITY CONTROL.

TXZ171-172-183>190-311500-
TEXAS HILL COUNTRY AND EDWARDS PLATEAU

CITY           SKY/WX    TMP DP  RH WIND       PRES   REMARKS
JUNCTION       SUNNY     62  43  49 NE12      30.31R
*LLANO         SUNNY     59  45  58 N7        30.32R
BURNET         SUNNY     60  44  55 N10G18    30.30R
*HORSESHOE BAY SUNNY     60  47  61 CALM      30.29R
*KERRVILLE     PTSUNNY   59  55  87 N3        30.29R
*FREDERICKSBRG SUNNY     58  50  74 NE7       30.29R HAZE
*ROCKSPRINGS   SUNNY     61  54  77 CALM      30.30R
*BOERNE STAGE  CLOUDY    59  54  82 N8        30.27R
*CASTROVILLE   CLOUDY    65  58  79 NE9       30.25R
HONDO          PTSUNNY   61  60  97 NE9       30.26R
*UVALDE        PTSUNNY   68  67  95 NE9       30.24R
DEL RIO        CLOUDY    72  59  63 NE9G20    30.23R
LAUGHLIN AFB   PTSUNNY   70  60  70 E13       30.23R
CARRIZO SPRGS  CLOUDY    63  63 100 E5        30.22R
$$

TXZ173-191>194-202-209-217>225-228-311500-
CENTRAL AND SOUTH CENTRAL TEXAS

CITY           SKY/WX    TMP DP  RH WIND       PRES   REMARKS
GEORGETOWN     SUNNY     61  48  63 N10       30.26R
AUSTIN/BERGSTM PTSUNNY   59  53  80 N12       30.24R
AUSTIN/MABRY   MOSUNNY   59  50  72 N8        30.26R
*AUSTIN/EXEC   PTSUNNY   59  48  67 N12       30.26R
*LAGO VISTA    PTSUNNY   58  49  71 N8G18     30.28R
SAN MARCOS     SUNNY     61  52  72 N12       30.25R
NEW BRAUNFELS  CLOUDY    64  54  69 NE9       30.23R
RANDOLPH AFB   CLOUDY    64  56  76 N10       30.24R
PT SAN ANTONIO CLOUDY    65  58  77 NE14      30.22R
SAN ANTONIO    CLOUDY    65  58  78 N9        30.25R
STINSON FIELD  CLOUDY    66  57  72 NE10      30.22R
*PLEASANTON    CLOUDY    65  62  91 N5        30.22R
*LA GRANGE     SUNNY     63  56  78 N3        30.20R
*GIDDINGS      SUNNY     60  51  72 N8        30.26R
*GONZALES      SUNNY    N/A N/A N/A N7        30.22R
$$

TXZ163>164-176>182-195>201-210>213-226-227-235-311500-
SOUTHEAST TEXAS

CITY           SKY/WX    TMP DP  RH WIND       PRES   REMARKS
COLLEGE STN    SUNNY     62  47  57 N10       30.22R
*BRYAN         SUNNY     58  48  69 N9        30.23R
*CALDWELL      SUNNY     61  48  63 NW13      30.26R
*CROCKETT      SUNNY     59  50  72 N8        30.23R
*BRENHAM       SUNNY     62  52  70 N10       30.22R
HUNTSVILLE     SUNNY     58  50  75 N6        30.20R
CONROE         SUNNY     60  50  69 N8        30.19R
HOUSTON BUSH   MOSUNNY   63  50  62 N9        30.17R
HOUSTON HOBBY  MOSUNNY   66  53  63 N9        30.15R
*HOUSTON SW AP SUNNY     58  52  80 N7        30.17R
PEARLAND       SUNNY     66  54  65 N7        30.17R
HOUSTON HOOKS  SUNNY     62  51  67 N9        30.18R
ELLINGTON FLD  MOSUNNY   66  55  68 N7        30.17R
SUGAR LAND     SUNNY     64  54  69 N8        30.17R
*HOUSTON EXEC  SUNNY     59 N/A N/A N9        30.19R
*CLEVELAND MUN SUNNY     55  52  89 N5        30.18R
*WHARTON       CLOUDY    64  56  74 N7        30.19R
*COLUMBUS      FAIR      62  55  77 N7        30.20R
$$

TXZ214>216-236>238-311500-
THE UPPER TEXAS COAST

CITY           SKY/WX    TMP DP  RH WIND       PRES   REMARKS
*ORANGE        SUNNY     57  53  87 NW3       30.15R
PORT ARTHUR    SUNNY     60  52  74 NW8       30.13R
GALVESTON      SUNNY     70  58  65 NW8       30.15R
ANGLETON       SUNNY     65  60  84 N7        30.16R
*BAY CITY        N/A     66  64  91 N6        30.17R
PALACIOS       CLOUDY    68  62  81 N14       30.16R
$$

TXZ229>234-239>247-311500-
TEXAS COASTAL BEND AND RIO GRANDE PLAINS

CITY           SKY/WX    TMP DP  RH WIND       PRES   REMARKS
VICTORIA       CLOUDY    68  58  70 N8        30.19R
*BEEVILLE      RAIN      68  68 100 N5        30.18R
ROCKPORT       CLOUDY    71  66  84 NE8       30.16R
*PORT ARANSAS  CLOUDY    72  68  87 NE8       30.16R
*PORT LAVACA   CLOUDY    67  62  86 N8        30.17R
*INGLESIDE     CLOUDY    71  68  92 NE5       30.16R
CORPUS CHRISTI TSTM      70  68  93 N9        30.17R FOG
CORPUS NAS     TSTM      74  68  81 NE16      30.17R
*ROBSTOWN      NOT AVBL
ALICE          TSTM      67  66  97 N8        30.18R FOG
KINGSVILLE NAS TSTM      68  68 100 E14       30.17R VSB 1
COTULLA        CLOUDY    67  64  90 N5        30.22R
*FAITH RANCH   CLOUDY    64  64 100 NE10      30.22R
LAREDO         RAIN      66  65  97 NE12      30.24R
$$

TXZ248>255-311500-
DEEP SOUTH TEXAS

CITY           SKY/WX    TMP DP  RH WIND       PRES   REMARKS
BROWNSVILLE    SUNNY     73  71  93 CALM      30.12R FOG
PORT ISABEL    SUNNY     73  70  90 NW6       30.12R FOG
*SOUTH PADRE     N/A    N/A N/A N/A CALM      30.10R
HARLINGEN      SUNNY     69  68  96 NW5       30.12R FOG
*HEBBRONVILLE  RAIN      64  63  96 N6        30.22R
MCALLEN        SUNNY     72  69  90 N5        30.14R
*WESLACO       SUNNY     71  67  89 CALM      30.13R FOG
FALFURRIAS     CLOUDY    67  65  93 NW12G24   30.16R
EDINBURG       CLOUDY    69  66  92 N3        30.14R FOG
*ZAPATA        PTSUNNY   67  67  97 NE15G22   30.20R
$$

TXZ213>215-236>238-242>244-246-247-251-254-255-311500-
CMAN STATIONS

STATION/POSITION TIME  TEMP    WIND        PRES    WAVE
                       AIR SEA DIR/SP/G            HT/PER
                 (UTC) (F)     (DEG/KT/KT) (MB)    (FT/S)
SABINE PASS      1300   63 74  320/  5/  9 1020.3
SEA RIM ST PARK  1300   57     320/  5/  6 1020.7
NORTH JETTY/GLS  1300   70 75   10/  8/ 10   N/A
EAGLE POINT      1300   66 75  330/  2/  4 1020.7
MORGANS POINT    1300   65     360/ 11/ 15 1020.7
MISSION/ARANSAS  1300           40/ 11     1021.0
PORT O`CONNOR    1300           10/ 12/ 14   N/A
PORT ARANSAS     1300   76 78   30/ 19/ 21 1019.9
MALAQUITE BEACH  1300   75 79   20/ 22/ 24 1019.4
BAFFIN BAY       1300   72 84  310/ 12/ 14 1019.9
PORT ISABEL      1300   72 79  300/  3/  4 1019.3
$$

GMZ080-GMZ150>470-311500-
OFFSHORE BUOY REPORTS

STATION/POSITION TIME  TEMP    WIND        PRES    WAVE
                       AIR SEA DIR/SP/G            HT/PER
                 (UTC) (F)     (DEG/KT/KT) (MB)    (FT/S)
20 E GALVESTON   1400   71 76  340/ 14/ 16 1019.8    1/ 3
90 E PT ARANSAS  1400   75 79   20/ 14/ 17 1020.3    2/ 4
35 NE PT MANSFLD 1300   77 80   50/ 12/ 12 1018.9    2/ 5
200 E PT ISABEL  1300   76 80   20/ 14/ 16 1017.9    2/ 5
$$



USA.gov is the U.S. government's official web portal to all federal, state and local government web resources and services.